Location: Joffre
(52.3362°N, 113.5373°W)
Time: 11:32:54
(UTC+00:00)

N. Korean satellite - Pass Details

Date: 11 December 2021
Orbit: 447 x 491 km, 97.3° (Epoch: 21 January)

Event Time Altitude Azimuth Distance (km) Brightness Sun altitude
Rises 13:58:43 0° 2° (N) 2,466 10.0 -13.5°
Reaches altitude 10° 14:01:03 10° 347° (NNW) 1,587 8.8 -13.2°
Enters shadow 14:02:39 19° 322° (NW) 1,150 8.0 -12.9°
Exits shadow 14:07:12 - 236° (WSW) 1,879 9.2 -12.3°
Sets 14:08:41 0° 228° (SW) 2,451 9.9 -12.1°
